TimeMDT,TemperatureF,Dew PointF,Humidity,Sea Level PressureIn,VisibilityMPH,Wind Direction,Wind SpeedMPH,Gust SpeedMPH,PrecipitationIn,Events,Conditions,WindDirDegrees,DateUTC
12:15 AM,59.0,46.4,63,30.33,10.0,NNW,5.8,-,N/A,,Scattered Clouds,330,2013-09-07 06:15:00
12:35 AM,59.0,46.4,63,30.34,10.0,NW,8.1,-,N/A,,Mostly Cloudy,310,2013-09-07 06:35:00
12:55 AM,59.0,46.4,63,30.34,10.0,NNW,9.2,-,N/A,,Mostly Cloudy,330,2013-09-07 06:55:00
1:15 AM,59.0,46.4,63,30.34,10.0,NNW,6.9,-,N/A,,Scattered Clouds,340,2013-09-07 07:15:00
1:35 AM,59.0,46.4,63,30.34,10.0,North,8.1,-,N/A,,Scattered Clouds,360,2013-09-07 07:35:00
1:55 AM,57.2,46.4,67,30.34,10.0,NNW,8.1,-,N/A,,Clear,330,2013-09-07 07:55:00
2:15 AM,59.0,46.4,63,30.34,10.0,NNW,9.2,-,N/A,,Mostly Cloudy,330,2013-09-07 08:15:00
2:35 AM,59.0,44.6,59,30.34,10.0,NNW,8.1,-,N/A,,Overcast,330,2013-09-07 08:35:00
2:55 AM,59.0,44.6,59,30.34,10.0,Calm,Calm,-,N/A,,Overcast,0,2013-09-07 08:55:00
3:15 AM,59.0,46.4,63,30.34,10.0,SSE,3.5,-,N/A,,Overcast,150,2013-09-07 09:15:00
3:35 AM,55.4,46.4,72,30.34,10.0,SE,3.5,-,N/A,,Mostly Cloudy,140,2013-09-07 09:35:00
3:55 AM,57.2,46.4,67,30.34,10.0,South,3.5,-,N/A,,Overcast,170,2013-09-07 09:55:00
4:15 AM,59.0,46.4,63,30.34,10.0,Calm,Calm,-,N/A,,Overcast,0,2013-09-07 10:15:00
4:35 AM,57.2,46.4,67,30.35,10.0,WSW,3.5,-,N/A,,Overcast,250,2013-09-07 10:35:00
4:55 AM,55.4,46.4,72,30.34,10.0,Calm,Calm,-,N/A,,Overcast,0,2013-09-07 10:55:00
5:15 AM,55.4,46.4,72,30.34,10.0,Calm,Calm,-,N/A,,Overcast,0,2013-09-07 11:15:00
5:35 AM,55.4,48.2,77,30.34,10.0,NNW,3.5,-,N/A,,Overcast,340,2013-09-07 11:35:00
5:55 AM,55.4,46.4,72,30.34,10.0,North,3.5,-,N/A,,Mostly Cloudy,360,2013-09-07 11:55:00
6:15 AM,55.4,46.4,72,30.34,10.0,Calm,Calm,-,N/A,,Mostly Cloudy,0,2013-09-07 12:15:00
6:35 AM,55.4,48.2,77,30.34,10.0,WNW,4.6,-,N/A,Rain,Light Rain,290,2013-09-07 12:35:00
6:55 AM,51.8,48.2,88,30.33,10.0,Calm,Calm,-,N/A,Rain,Light Rain,0,2013-09-07 12:55:00
7:15 AM,55.4,46.4,72,30.33,10.0,Calm,Calm,-,N/A,,Mostly Cloudy,0,2013-09-07 13:15:00
7:35 AM,55.4,46.4,72,30.34,10.0,Calm,Calm,-,N/A,,Mostly Cloudy,0,2013-09-07 13:35:00
7:55 AM,57.2,48.2,72,30.34,10.0,North,6.9,-,N/A,,Mostly Cloudy,360,2013-09-07 13:55:00
8:15 AM,57.2,48.2,72,30.34,10.0,NNW,8.1,-,N/A,,Scattered Clouds,330,2013-09-07 14:15:00
8:35 AM,59.0,48.2,67,30.35,10.0,NNW,8.1,-,N/A,,Clear,340,2013-09-07 14:35:00
8:55 AM,60.8,48.2,63,30.35,10.0,North,4.6,-,N/A,,Clear,350,2013-09-07 14:55:00
9:15 AM,64.4,46.4,52,30.35,10.0,North,5.8,-,N/A,,Mostly Cloudy,10,2013-09-07 15:15:00
9:35 AM,68.0,46.4,46,30.35,10.0,NE,4.6,-,N/A,,Scattered Clouds,40,2013-09-07 15:35:00
9:55 AM,69.8,44.6,40,30.35,10.0,East,5.8,-,N/A,,Clear,100,2013-09-07 15:55:00
10:15 AM,71.6,44.6,38,30.35,10.0,ESE,8.1,-,N/A,,Scattered Clouds,110,2013-09-07 16:15:00
10:35 AM,71.6,44.6,38,30.35,10.0,SE,5.8,-,N/A,,Scattered Clouds,130,2013-09-07 16:35:00
10:55 AM,71.6,44.6,38,30.35,10.0,SSE,9.2,-,N/A,,Clear,150,2013-09-07 16:55:00
11:15 AM,73.4,42.8,33,30.34,10.0,SE,9.2,-,N/A,,Clear,140,2013-09-07 17:15:00
11:35 AM,73.4,42.8,33,30.35,10.0,SSE,3.5,-,N/A,,Clear,160,2013-09-07 17:35:00
11:55 AM,75.2,42.8,31,30.34,10.0,SSE,8.1,-,N/A,,Clear,150,2013-09-07 17:55:00
12:15 PM,75.2,42.8,31,30.34,10.0,Calm,Calm,-,N/A,,Clear,0,2013-09-07 18:15:00
12:35 PM,77.0,41.0,28,30.32,10.0,SSW,5.8,-,N/A,,Clear,210,2013-09-07 18:35:00
12:55 PM,77.0,41.0,28,30.32,10.0,Calm,Calm,-,N/A,,Scattered Clouds,0,2013-09-07 18:55:00
1:15 PM,78.8,39.2,24,30.31,10.0,SSE,5.8,-,N/A,,Scattered Clouds,150,2013-09-07 19:15:00
1:35 PM,77.0,41.0,28,30.30,10.0,South,6.9,-,N/A,Thunderstorm,Mostly Cloudy,190,2013-09-07 19:35:00
1:55 PM,78.8,39.2,24,30.30,10.0,SSW,8.1,-,N/A,,Mostly Cloudy,200,2013-09-07 19:55:00
2:15 PM,77.0,42.8,29,30.29,10.0,NW,11.5,-,N/A,,Scattered Clouds,310,2013-09-07 20:15:00
2:35 PM,75.2,44.6,34,30.28,10.0,NNW,16.1,20.7,N/A,,Scattered Clouds,330,2013-09-07 20:35:00
2:55 PM,71.6,44.6,38,30.28,10.0,NW,11.5,-,N/A,,Scattered Clouds,320,2013-09-07 20:55:00
3:15 PM,71.6,44.6,38,30.26,10.0,North,11.5,-,N/A,Rain,Light Rain,350,2013-09-07 21:15:00
3:35 PM,71.6,44.6,38,30.26,10.0,NNW,9.2,-,N/A,,Scattered Clouds,340,2013-09-07 21:35:00
3:55 PM,73.4,44.6,36,30.25,10.0,NNW,9.2,-,N/A,Rain,Light Rain,330,2013-09-07 21:55:00
4:15 PM,75.2,42.8,31,30.25,10.0,NW,10.4,-,N/A,,Scattered Clouds,310,2013-09-07 22:15:00
4:35 PM,75.2,42.8,31,30.24,10.0,WNW,12.7,-,N/A,Thunderstorm,Thunderstorm,300,2013-09-07 22:35:00
4:55 PM,71.6,42.8,35,30.24,10.0,NW,20.7,24.2,N/A,,Clear,310,2013-09-07 22:55:00
5:15 PM,68.0,42.8,40,30.24,10.0,NW,18.4,23.0,N/A,,Clear,310,2013-09-07 23:15:00
5:35 PM,68.0,44.6,43,30.25,10.0,WNW,12.7,-,N/A,Thunderstorm,Thunderstorm,290,2013-09-07 23:35:00
5:55 PM,66.2,44.6,46,30.30,10.0,SSW,16.1,-,N/A,Thunderstorm,Thunderstorm,200,2013-09-07 23:55:00
6:15 PM,60.8,50.0,68,30.34,10.0,WSW,11.5,24.2,N/A,Rain-Thunderstorm,Light Thunderstorms and Rain,250,2013-09-08 00:15:00
6:35 PM,57.2,50.0,77,30.32,10.0,WNW,13.8,-,N/A,Thunderstorm,Unknown,290,2013-09-08 00:35:00
6:55 PM,57.2,50.0,77,30.32,10.0,WNW,18.4,23.0,N/A,,Overcast,290,2013-09-08 00:55:00
7:15 PM,55.4,48.2,77,30.32,10.0,West,16.1,-,N/A,Thunderstorm,Scattered Clouds,280,2013-09-08 01:15:00
7:35 PM,57.2,46.4,67,30.31,10.0,West,11.5,16.1,N/A,,Scattered Clouds,280,2013-09-08 01:35:00
7:55 PM,55.4,48.2,77,30.32,10.0,SW,9.2,-,N/A,,Scattered Clouds,230,2013-09-08 01:55:00
8:15 PM,53.6,50.0,88,30.33,10.0,WSW,12.7,16.1,N/A,,Clear,250,2013-09-08 02:15:00
8:35 PM,55.4,50.0,82,30.33,10.0,West,5.8,-,N/A,,Mostly Cloudy,280,2013-09-08 02:35:00
8:55 PM,53.6,50.0,88,30.33,10.0,NNW,12.7,-,N/A,,Mostly Cloudy,340,2013-09-08 02:55:00
9:15 PM,53.6,50.0,88,30.34,10.0,WNW,6.9,-,N/A,Rain,Rain,300,2013-09-08 03:15:00
9:35 PM,53.6,50.0,88,30.32,10.0,North,15.0,-,N/A,Rain,Light Rain,360,2013-09-08 03:35:00
9:55 PM,53.6,50.0,88,30.29,10.0,North,13.8,20.7,N/A,,Scattered Clouds,350,2013-09-08 03:55:00
10:15 PM,53.6,50.0,88,30.30,10.0,NNW,8.1,-,N/A,,Scattered Clouds,340,2013-09-08 04:15:00
10:35 PM,53.6,48.2,82,30.29,10.0,North,11.5,-,N/A,,Scattered Clouds,350,2013-09-08 04:35:00
10:55 PM,53.6,48.2,82,30.29,10.0,North,8.1,-,N/A,,Mostly Cloudy,10,2013-09-08 04:55:00
11:15 PM,55.4,46.4,72,30.29,10.0,NNE,8.1,-,N/A,,Mostly Cloudy,20,2013-09-08 05:15:00
11:35 PM,53.6,46.4,77,30.29,10.0,NNE,3.5,-,N/A,,Scattered Clouds,20,2013-09-08 05:35:00
11:55 PM,53.6,46.4,77,30.29,10.0,Calm,Calm,-,N/A,,Clear,0,2013-09-08 05:55:00